World > North America > United States > Iowa

Independence, Iowa Regional Weather

Lat: 42.47N, Lon: 91.89W
Wx Zone: IAZ040Web Search
Independence Weather Warning NWS WEATHER ALERT FOR THE INDEPENDENCE, IA AREA - Issued: 817 AM CST Wed Mar 3 2021 Independence Weather Warning  

If you are on your PC, you can easily pass this page to your phone by scanning the QR Code near the bottom with your camera.

Feedback
Independence Weather Map
UTC Time: 3/3/2021, 17:41
Your Time:

Independence, IA Regional Weather

Expires:202103031800;;416310
ASUS43 KDMX 031706
RWRIA 

WEATHER ROUNDUP FOR IOWA
NATIONAL WEATHER SERVICE DES MOINES IA
1100 AM CST WED MAR 03 2021

NOTE: "FAIR" INDICATES FEW OR NO CLOUDS BELOW 12,000 FEET WITH NO
SIGNIFICANT WEATHER AND/OR OBSTRUCTIONS TO VISIBILITY.

* - THESE STATIONS ARE NOT NWS STATIONS...THUS NOT UNDER NWS
QUALITY CONTROL.  THEY ALSO DO NOT REPORT WEATHER SUCH 
AS PRECIPITATION OR FOG.  


IAZ007>011-017>019-026>030-037>042-050>054-066-031800-
   NORTHEAST IOWA
  
CITY           SKY/WX    TMP DP  RH WIND       PRES   REMARKS
CEDAR RAPIDS   SUNNY     39  33  79 W7        30.03R WCI  34          
CHARLES CITY * SUNNY     43  37  81 NW5       30.05R                  
CLINTON *      SUNNY     36  31  82 W5        30.04R WCI  32          
DECORAH *      SUNNY     43  36  75 N5        30.02R                  
DUBUQUE        SUNNY     45  32  60 CALM      30.02R                  
MONTICELLO *   SUNNY     41  36  81 NW6       30.04R                  
OELWEIN *      SUNNY     37  34  87 NW6       30.04R WCI  33          
WATERLOO       SUNNY     45  34  65 N5        30.04R                  
$$
 

SKY/WX - Weather  TMP - Temperature  DP - Dew Point  RH - Relative Humidity
WIND - Wind Direction/Speed PRES - Barometric Pressure VSB - Visibility
WCI - Wind Chill Index E13G22 Wind - East Wind 13 mph/Gusts of 22 mph